Location: Seattle
(47.6064°N, 122.3308°W)
Time: 18:04:36
(UTC-08:00)

N. Korean satellite - Pass Details

Date: 10 December 2022
Orbit: 408 x 444 km, 97.3° (Epoch: 28 January)

Event Time Altitude Azimuth Distance (km) Brightness Sun altitude
Rises 17:36:16 0° 207° (SSW) 2,476 10.9 -12.6°
Reaches altitude 10° 17:38:58 10° 231° (SW) 1,615 10.4 -13.0°
Maximum altitude 17:41:04 15° 269° (W) 1,334 9.9 -13.3°
Drops below altitude 10° 17:43:12 10° 306° (NW) 1,632 9.7 -13.7°
Sets 17:45:58 0° 330° (NNW) 2,517 10.3 -14.1°
